Weather History for Chicago Lansing, IL

Change the Weather History Date:

Saturday, October 6, 2012

  Actual Average (KMDW) Record (KMDW)
Temperature  
Mean Temperature 41 °F 58 °F  
Max Temperature 51 °F 67 °F 94 °F (1963)
Min Temperature 32 °F 49 °F 28 °F (1952)
Degree Days  
Heating Degree Days 24 8  
Month to date heating degree days 44  
Since 1 July heating degree days 126  
Cooling Degree Days 0 1  
Month to date cooling degree days 6  
Year to date cooling degree days 1035  
Moisture  
Dew Point 27 °F    
Average Humidity 57    
Maximum Humidity 80    
Minimum Humidity 40    
Precipitation  
Precipitation 0.00 in 0.10 in 1.57 in (1955)
Month to date precipitation 0.60  
Year to date precipitation 30.46  
Sea Level Pressure  
Sea Level Pressure 30.13 in    
Wind  
Wind Speed 7 mph (WNW)    
Max Wind Speed 14 mph    
Max Gust Speed 20 mph    
Visibility 10 miles    
Events      
T = Trace of Precipitation, MM = Missing Value Source: NWS Daily Summary

Daily Weather History Graph

Daily Weather History Graph

Search for Another Location

Airport:

Trip Planner

Search our weather history database for the weather conditions in past years. The results will help you decide how hot, cold, wet, or windy it might be!

Date:

Astronomy

Oct. 06, 2012 Rise Set
Actual Time 6:52 AM CDT 6:22 PM CDT
Civil Twilight 6:25 AM CDT 6:50 PM CDT
Nautical Twilight 5:52 AM CDT 7:22 PM CDT
Astronomical Twilight 5:20 AM CDT 7:54 PM CDT
Moon 10:34 PM CDT (10/6) 12:50 PM CDT (10/6)
Length of Visible Light 12h 25m
Length of Day
11h 29m
Waning Gibbous, 65% of the Moon is Illuminated
Oct 6
Waning Gibbous
Oct 8
Last Quarter
Oct 15
New
Oct 21
First Quarter
Oct 29
Full

Hourly Weather History & Observations

Time (CDT) Temp. Windchill Dew Point Humidity Pressure Visibility Wind Dir Wind Speed Gust Speed Precip Events Conditions
12:15 AM 40.1 °F 34.7 °F 25.5 °F 56% 30.08 in 10.0 mi West 8.1 mph - N/A   Clear
12:35 AM 39.4 °F 34.5 °F 25.9 °F 58% 30.08 in 10.0 mi West 6.9 mph - N/A   Clear
12:55 AM 38.8 °F 33.2 °F 26.4 °F 61% 30.08 in 10.0 mi West 8.1 mph - N/A   Clear
1:15 AM 38.1 °F 32.9 °F 26.6 °F 63% 30.08 in 10.0 mi West 6.9 mph - N/A   Clear
1:35 AM 37.6 °F 32.3 °F 26.6 °F 65% 30.08 in 10.0 mi WNW 6.9 mph - N/A   Clear
1:55 AM 37.0 °F 31.6 °F 26.6 °F 66% 30.08 in 10.0 mi West 6.9 mph - N/A   Clear
2:15 AM 36.5 °F 31.8 °F 26.6 °F 67% 30.08 in 10.0 mi West 5.8 mph - N/A   Clear
2:35 AM 36.0 °F 32.1 °F 26.6 °F 69% 30.07 in 10.0 mi West 4.6 mph - N/A   Clear
2:55 AM 35.2 °F 29.5 °F 26.6 °F 71% 30.07 in 10.0 mi West 6.9 mph - N/A   Clear
3:15 AM 34.9 °F 29.0 °F 26.6 °F 72% 30.07 in 10.0 mi West 6.9 mph - N/A   Clear
3:35 AM 34.9 °F 29.0 °F 26.6 °F 72% 30.07 in 10.0 mi West 6.9 mph - N/A   Clear
3:55 AM 35.2 °F 28.8 °F 26.2 °F 70% 30.08 in 10.0 mi West 8.1 mph - N/A   Clear
4:15 AM 35.1 °F 30.1 °F 26.1 °F 70% 30.08 in 10.0 mi West 5.8 mph - N/A   Clear
4:35 AM 34.7 °F 28.1 °F 26.6 °F 72% 30.08 in 10.0 mi West 8.1 mph - N/A   Clear
4:55 AM 34.2 °F 27.5 °F 26.4 °F 73% 30.08 in 10.0 mi West 8.1 mph - N/A   Clear
5:15 AM 33.8 °F 27.0 °F 26.6 °F 75% 30.09 in 10.0 mi West 8.1 mph - N/A   Clear
5:35 AM 33.8 °F 27.0 °F 26.2 °F 74% 30.10 in 10.0 mi West 8.1 mph - N/A   Clear
5:55 AM 33.3 °F 26.4 °F 26.6 °F 77% 30.11 in 10.0 mi West 8.1 mph - N/A   Clear
6:15 AM 33.1 °F 26.9 °F 26.4 °F 77% 30.11 in 10.0 mi West 6.9 mph - N/A   Clear
6:35 AM 32.7 °F 26.4 °F 26.6 °F 78% 30.12 in 10.0 mi West 6.9 mph - N/A   Clear
6:55 AM 32.0 °F 25.6 °F 26.6 °F 80% 30.12 in 10.0 mi West 6.9 mph - N/A   Clear
7:15 AM 32.4 °F 26.9 °F 26.6 °F 79% 30.12 in 10.0 mi West 5.8 mph - N/A   Clear
7:35 AM 33.1 °F 27.7 °F 26.6 °F 77% 30.12 in 10.0 mi West 5.8 mph - N/A   Clear
7:55 AM 34.3 °F 28.4 °F 27.3 °F 76% 30.12 in 10.0 mi WNW 6.9 mph - N/A   Clear
8:15 AM 36.0 °F 29.6 °F 27.3 °F 71% 30.12 in 10.0 mi WNW 8.1 mph - N/A   Clear
8:35 AM 37.8 °F 31.8 °F 27.5 °F 67% 30.13 in 10.0 mi WNW 8.1 mph - N/A   Clear
8:55 AM 39.2 °F 33.6 °F 27.5 °F 63% 30.13 in 10.0 mi WNW 8.1 mph - N/A   Clear
9:15 AM 40.8 °F 36.2 °F 28.2 °F 61% 30.13 in 10.0 mi WNW 6.9 mph - N/A   Clear
9:35 AM 41.7 °F 36.7 °F 27.7 °F 58% 30.14 in 10.0 mi NW 8.1 mph - N/A   Clear
9:55 AM 43.5 °F 39.4 °F 28.4 °F 55% 30.14 in 10.0 mi NW 6.9 mph - N/A   Clear
10:15 AM 44.4 °F 38.2 °F 28.0 °F 53% 30.13 in 10.0 mi WNW 12.7 mph 19.6 mph N/A   Clear
10:35 AM 44.6 °F 39.2 °F 27.3 °F 51% 30.13 in 10.0 mi NNW 10.4 mph 19.6 mph N/A   Clear
10:55 AM 44.8 °F 39.9 °F 27.1 °F 50% 30.14 in 10.0 mi WNW 9.2 mph 16.1 mph N/A   Scattered Clouds
11:15 AM 45.9 °F 41.7 °F 27.7 °F 49% 30.14 in 10.0 mi WNW 8.1 mph 19.6 mph N/A   Scattered Clouds
11:35 AM 46.2 °F 42.7 °F 27.3 °F 48% 30.15 in 10.0 mi WNW 6.9 mph - N/A   Mostly Cloudy
11:55 AM 47.5 °F - 28.0 °F 47% 30.15 in 10.0 mi West 8.1 mph - N/A   Mostly Cloudy
12:15 PM 47.5 °F - 27.7 °F 46% 30.15 in 10.0 mi WNW 9.2 mph - N/A   Mostly Cloudy
12:35 PM 46.4 °F 42.4 °F 27.9 °F 48% 30.15 in 10.0 mi West 8.1 mph - N/A   Overcast
12:55 PM 49.6 °F - 28.9 °F 45% 30.14 in 10.0 mi WSW 9.2 mph 17.3 mph N/A   Mostly Cloudy
1:15 PM 47.5 °F - 27.3 °F 46% 30.14 in 10.0 mi NW 10.4 mph 18.4 mph N/A   Overcast
1:35 PM 48.7 °F - 27.3 °F 43% 30.13 in 10.0 mi WNW 9.2 mph - N/A   Overcast
1:55 PM 49.3 °F - 27.3 °F 43% 30.13 in 10.0 mi NW 9.2 mph - N/A   Mostly Cloudy
2:15 PM 49.1 °F - 27.0 °F 42% 30.12 in 10.0 mi NW 13.8 mph 18.4 mph N/A   Overcast
2:35 PM 49.8 °F - 26.8 °F 41% 30.12 in 10.0 mi WNW 9.2 mph - N/A   Overcast
2:55 PM 50.0 °F - 26.6 °F 40% 30.13 in 10.0 mi WNW 8.1 mph - N/A   Overcast
3:15 PM 49.1 °F - 27.3 °F 43% 30.13 in 10.0 mi NW 6.9 mph - N/A   Overcast
3:35 PM 49.3 °F - 27.7 °F 43% 30.13 in 10.0 mi NW 6.9 mph - N/A   Overcast
3:55 PM 48.4 °F - 26.8 °F 43% 30.13 in 10.0 mi West 8.1 mph 16.1 mph N/A   Overcast
4:15 PM 48.2 °F - 27.0 °F 44% 30.13 in 10.0 mi NW 10.4 mph - N/A   Overcast
4:35 PM 47.3 °F - 27.1 °F 46% 30.13 in 10.0 mi WNW 9.2 mph - N/A   Overcast
4:55 PM 46.4 °F 41.9 °F 26.6 °F 46% 30.13 in 10.0 mi WNW 9.2 mph - N/A   Overcast
5:15 PM 46.9 °F - 26.6 °F 45% 30.14 in 10.0 mi WNW 8.1 mph - N/A   Overcast
5:35 PM 46.6 °F - 27.0 °F 46% 30.14 in 10.0 mi NW 6.9 mph - N/A   Overcast
5:55 PM 46.4 °F 42.4 °F 26.6 °F 46% 30.15 in 10.0 mi NW 8.1 mph - N/A   Overcast
6:15 PM 46.0 °F 42.5 °F 27.1 °F 48% 30.16 in 10.0 mi WNW 6.9 mph - N/A   Overcast
6:35 PM 45.7 °F 41.0 °F 27.5 °F 49% 30.16 in 10.0 mi NW 9.2 mph - N/A   Overcast
6:55 PM 45.7 °F 42.0 °F 27.1 °F 48% 30.16 in 10.0 mi NW 6.9 mph - N/A   Overcast
7:15 PM 45.5 °F 41.3 °F 26.8 °F 48% 30.16 in 10.0 mi NW 8.1 mph - N/A   Overcast
7:35 PM 45.1 °F 42.0 °F 26.6 °F 48% 30.17 in 10.0 mi NW 5.8 mph - N/A   Overcast
7:55 PM 45.0 °F 42.6 °F 26.6 °F 49% 30.17 in 10.0 mi NW 4.6 mph - N/A   Overcast
8:15 PM 44.8 °F 41.0 °F 27.0 °F 50% 30.17 in 10.0 mi NW 6.9 mph - N/A   Overcast
8:35 PM 44.8 °F 41.6 °F 27.1 °F 50% 30.17 in 10.0 mi WNW 5.8 mph - N/A   Overcast
8:55 PM 44.1 °F 40.8 °F 27.3 °F 52% 30.17 in 10.0 mi WNW 5.8 mph - N/A   Overcast
9:15 PM 43.9 °F 39.9 °F 27.5 °F 53% 30.17 in 10.0 mi West 6.9 mph - N/A   Overcast
9:35 PM 43.7 °F 40.3 °F 27.7 °F 53% 30.17 in 10.0 mi WNW 5.8 mph - N/A   Overcast
9:55 PM 43.7 °F 40.3 °F 27.5 °F 53% 30.17 in 10.0 mi WNW 5.8 mph - N/A   Overcast
10:15 PM 43.2 °F 39.0 °F 28.4 °F 56% 30.17 in 10.0 mi WNW 6.9 mph - N/A   Overcast
10:35 PM 43.2 °F 40.5 °F 28.0 °F 55% 30.17 in 10.0 mi WNW 4.6 mph - N/A   Overcast
10:55 PM 43.2 °F 39.7 °F 27.9 °F 55% 30.17 in 10.0 mi WNW 5.8 mph - N/A   Overcast
11:15 PM 43.0 °F 39.5 °F 28.4 °F 56% 30.17 in 10.0 mi WNW 5.8 mph - N/A   Overcast
11:35 PM 43.0 °F 40.3 °F 28.2 °F 56% 30.17 in 10.0 mi WNW 4.6 mph - N/A   Overcast
11:55 PM 42.8 °F 40.1 °F 28.4 °F 57% 30.17 in 10.0 mi WNW 4.6 mph - N/A   Overcast